Renton, WA
on Monday, February 25, 2013

Monday
Previous Day Next Day
Daily Summary
 ActualAverage (KSEA)Record (KSEA)
Temperature
Mean Temperature °F 44°F  
Max Temperature 51°F 51°F 64°F (1992)
Min Temperature 39°F 37°F 20°F (2011)
Degree Days
Heating Degree Days 20 21  
Month to date heating degree days 543  
Since 1 July heating degree days 3192  
Cooling Degree Days 0 0  
Month to date cooling degree days 0  
Year to date cooling degree days 0  
Moisture
Dew Point 35°F   
Average Humidity 72    
Maximum Humidity 87    
Minimum Humidity 41    
Precipitation
Precipitation 0.06 in 0.13 in 0.98 in (1948)
Month to date precipitation 3.13  
Year to date precipitation 8.70  
Snow
Snow 0.00 in in T in (2009)
Month to date snowfall  
Since 1 July snowfall  
Snow Depth in   
Wind
Wind Speed 11 mph   
Max Wind Speed 18 mph   
Max Gust Speed 30 mph   
Visibility 10 miles   
Events Rain   

Key: T is trace of precipitation, MM is missing value
Source: NWS Daily Summary
Time(PST)TemperatureDew PointHumidity Pressure Visibility Wind DirectionWind SpeedGust SpeedPrecipitationEvents Conditions
12:53 AM 45.0°F 36.0°F 71% 29.95 in 10.0 miles SSE 11.5 mph 19.6 mph N/A Rain Light Rain
1:53 AM 43.0°F 39.0°F 86% 29.93 in 8.0 miles SSE 4.6 mph - 0.03 in Rain Light Rain
2:14 AM 42.8°F 39.2°F 87% 29.91 in 9.0 miles ESE 3.5 mph - 0.02 in Rain Light Rain
2:53 AM 43.0°F 39.0°F 86% 29.92 in 10.0 miles SSE 9.2 mph 17.3 mph 0.03 in   Overcast
3:53 AM 43.0°F 39.0°F 86% 29.94 in 10.0 miles SSE 12.7 mph 21.9 mph N/A   Overcast
4:53 AM 44.1°F 37.9°F 79% 29.96 in 10.0 miles SSE 15.0 mph 25.3 mph N/A   Overcast
5:53 AM 43.0°F 37.9°F 82% 29.96 in 10.0 miles SSE 13.8 mph 26.5 mph N/A   Overcast
6:53 AM 43.0°F 37.9°F 82% 29.99 in 10.0 miles South 12.7 mph 20.7 mph N/A   Overcast
7:53 AM 43.0°F 37.0°F 80% 30.00 in 10.0 miles South 13.8 mph 29.9 mph N/A   Overcast
8:53 AM 43.0°F 37.0°F 80% 30.02 in 10.0 miles SSE 12.7 mph 21.9 mph N/A   Overcast
9:53 AM 44.1°F 37.0°F 76% 30.04 in 10.0 miles South 16.1 mph 27.6 mph N/A   Mostly Cloudy
10:53 AM 45.0°F 36.0°F 71% 30.06 in 10.0 miles South 18.4 mph 25.3 mph N/A   Clear
11:53 AM 46.0°F 35.1°F 66% 30.08 in 10.0 miles South 12.7 mph 25.3 mph N/A   Clear
12:53 PM 48.0°F 33.1°F 56% 30.09 in 10.0 miles South 10.4 mph 27.6 mph N/A   Clear
1:53 PM 50.0°F 33.1°F 52% 30.10 in 10.0 miles SSW 15.0 mph 29.9 mph N/A   Clear
2:53 PM 51.1°F 28.0°F 41% 30.12 in 10.0 miles SSW 13.8 mph 23.0 mph N/A   Clear
3:53 PM 50.0°F 30.9°F 48% 30.15 in 10.0 miles South 15.0 mph 27.6 mph N/A   Clear
4:53 PM 48.0°F 32.0°F 54% 30.18 in 10.0 miles South 8.1 mph - N/A   Clear
5:53 PM 45.0°F 34.0°F 65% 30.20 in 10.0 miles South 11.5 mph - N/A   Clear
6:53 PM 43.0°F 34.0°F 71% 30.23 in 10.0 miles South 10.4 mph - N/A   Clear
7:53 PM 43.0°F 33.1°F 68% 30.26 in 10.0 miles SSE 5.8 mph - N/A   Clear
8:53 PM 41.0°F 35.1°F 79% 30.29 in 10.0 miles SE 4.6 mph - N/A   Clear
9:53 PM 39.9°F 34.0°F 79% 30.31 in 10.0 miles SE 3.5 mph - N/A   Mostly Cloudy
10:53 PM 41.0°F 34.0°F 76% 30.32 in 10.0 miles SE 5.8 mph - N/A   Overcast
11:53 PM 42.1°F 34.0°F 73% 30.33 in 10.0 miles SE 6.9 mph - N/A   Overcast
Moon Phase
Feb. 25 Feb. 25 Mar. 04 Mar. 11 Mar. 19
Sunrise:06:56 AM (PST) Moon Rise:06:12 PM (PST)2/25
Sunset:05:48 PM (PST) Moon Set:06:26 AM (PST)2/25

Copyright © 2014 The Weather Underground, Inc.